Terminal Aerodrome Forecast
Issued by NWS

Home | Current Version | Previous Version | Text Only | Print | Product List | Glossary On
Versions: 1 2 3 4 5 6 7 8 9 10 11 12 13 14 15 16 17 18 19 20 21 22 23 24 25 26 27 28 29 30 31 32 33
000
FTAK31 PANC 281134
TAFADQ
TAF
PADQ 281134Z 2812/2912 27005KT P6SM FEW030 BKN100
     FM282000 14006KT 6SM -RA BR SCT015 BKN030 OVC050
     FM290400 10009KT 5SM -RA BR SCT008 OVC015=

USA.gov is the U.S. government's official web portal to all federal, state and local government web resources and services.